Flag for U.S.A. Weather past 2 weeks in Savannah, Georgia, U.S.A.

Now
78 °F

Sunny.


Feels Like: 81 °F
Forecast: 74 / 90 °F
Wind: 7 mph from Southwest

Location: Hunter U. S. Army Airfield

Current Time: Jul 5, 2015 at 9:18:05 AM

Latest Report: Jul 5, 2015 at 8:58 AM


Visibility: 10 mi

Pressure: 30.15 "Hg

Humidity: 86%

Dew point: 73 °F

Location of SavannahLocation

Historic Weather in Savannah — Graph

°F

Savannah temperature yesterday

Maximum temperature yesterday: 92 °F (at 2:58 PM)
Minimum temperature yesterday: 72 °F (at 6:58 PM)
Average temperature yesterday: 80 °F

Past Weeks' High & Low Weather Summary

 TemperatureHumidityPressure
High99 °F (Jun 21, 2:02 PM)100% (Jun 23, 1:58 AM)30.14 "Hg (Jun 23, 1:58 AM)
Low71 °F (Jul 5, 5:58 AM)41% (Jul 3, 4:58 PM)29.86 "Hg (Jun 27, 5:00 PM)
Average82 °F78%30.02 "Hg
* Reported Jun 20 7:58 AM — Jul 5 7:58 AM, Savannah, Weather by CustomWeather, © 2015

Note: Actual official high and low records may vary slightly from our data, if they occured in-between our weather recording intervals... More about our weather records

Advertising

Savannah weather history for previous 24 hours

 ConditionsComfort  
Time TempWeatherWind HumidityBarometerVisibility
7:58 AM
Sun, Jul 5
74 °FSunny.5 mph100%30.14 "Hg10 mi
6:58 AM71 °FClear.3 mph100%30.13 "Hg10 mi
5:58 AM71 °FClear.2 mph99%30.12 "Hg10 mi
4:58 AM72 °FClear.3 mph100%30.10 "Hg10 mi
3:58 AM72 °FPassing clouds.2 mph100%30.09 "Hg10 mi
2:58 AM72 °FClear.3 mph100%30.09 "Hg10 mi
1:58 AM72 °FClear.2 mph100%30.10 "Hg10 mi
12:58 AM72 °FClear.3 mph100%30.11 "Hg10 mi
11:58 PM
Sat, Jul 4
73 °FFog.2 mph100%30.11 "Hg3 mi
10:58 PM73 °FFog.5 mph100%30.12 "Hg6 mi
10:03 PM73 °FPassing clouds.5 mph100%30.08 "Hg10 mi
8:58 PM73 °FSunny.3 mph100%30.07 "Hg10 mi
7:58 PM72 °FSunny.5 mph100%30.08 "Hg9 mi
6:58 PM72 °FThundershowers. Fog.6 mph100%30.10 "Hg3 mi
6:03 PM73 °FStrong thunderstorms. Fog.14 mph94%30.13 "Hg0 mi
5:58 PM73 °FThunderstorms. Fog.15 mph94%30.12 "Hg1 mi
4:58 PM85 °FPartly sunny.10 mph68%30.05 "Hg10 mi
3:58 PM92 °FScattered clouds.8 mph52%30.05 "Hg10 mi
2:58 PM92 °FPassing clouds.8 mph51%30.05 "Hg10 mi
1:58 PM90 °FBroken clouds.10 mph59%30.07 "Hg10 mi
12:58 PM91 °FBroken clouds.9 mph61%30.09 "Hg10 mi
11:58 AM86 °FSunny.6 mph70%30.09 "Hg10 mi
10:58 AM85 °FSunny.6 mph73%30.09 "Hg10 mi
9:58 AM84 °FPassing clouds.7 mph74%30.08 "Hg10 mi
Weather by CustomWeather, © 2015

See weather overviewHow to use our weather pages